CO3D 3

Last updated on Mon Sep 07 2026 00:02:46 GMT+0000 (Coordinated Universal Time)

1 64900U 25156B 26249.54459190 .00002347 00000+0 11147-3 0 9990 2 64900 97.4339 327.0679 0000863 116.5100 243.6224 15.20208223 61893
UTC large
Height (km)
Speed (km/s)
/
Latitude / Longitude
Inclination (degrees)
Orbital Period (minutes)
Azimuth
Elevation
Range (km)
Doppler Factor

Next 0 passes for location: London (51.5072 / 0.1276)

No passes found over London.
CO3D 3